<?xml version="1.0" encoding="utf-8"?>
<gpx xmlns:xsi="http://www.w3.org/2001/XMLSchema-instance" xmlns:xsd="http://www.w3.org/2001/XMLSchema" version="1.1" creator="Shapelink.com" xmlns="http://www.topografix.com/GPX/1/1" xmlns:gpxtpx="http://www.garmin.com/xmlschemas/TrackPointExtension/v1">
  <metadata>
    <name>Löpning 4.41 km, 2021-04-15</name>
    <desc></desc>
    <author><name>christer nilsson</name></author> 
    <time>1970-01-01T01:00:00Z</time>
  </metadata>
  <trk>
    <name>Löpning 4.41 km, 2021-04-15</name>
    <trkseg>
      <trkpt lat="59.280349" lon="18.035367">
        <ele>29.2857</ele>
        <time>1970-01-01T01:00:00Z</time>
      </trkpt>
      <trkpt lat="59.280407" lon="18.035547">
        <ele>29.25</ele>
        <time>1970-01-01T01:00:00Z</time>
      </trkpt>
      <trkpt lat="59.280465" lon="18.035687">
        <ele>29.2222</ele>
        <time>1970-01-01T01:00:00Z</time>
      </trkpt>
      <trkpt lat="59.280532" lon="18.035859">
        <ele>29.2</ele>
        <time>1970-01-01T01:00:00Z</time>
      </trkpt>
      <trkpt lat="59.280591" lon="18.036025">
        <ele>29.1818</ele>
        <time>1970-01-01T01:00:00Z</time>
      </trkpt>
      <trkpt lat="59.280663" lon="18.036186">
        <ele>29.2727</ele>
        <time>1970-01-01T01:00:00Z</time>
      </trkpt>
      <trkpt lat="59.280716" lon="18.036381">
        <ele>29.3636</ele>
        <time>1970-01-01T01:00:00Z</time>
      </trkpt>
      <trkpt lat="59.280772" lon="18.036542">
        <ele>29.3636</ele>
        <time>1970-01-01T01:00:00Z</time>
      </trkpt>
      <trkpt lat="59.280841" lon="18.036672">
        <ele>29.2727</ele>
        <time>1970-01-01T01:00:00Z</time>
      </trkpt>
      <trkpt lat="59.280933" lon="18.036788">
        <ele>29.1818</ele>
        <time>1970-01-01T01:00:00Z</time>
      </trkpt>
      <trkpt lat="59.281015" lon="18.036865">
        <ele>29.2727</ele>
        <time>1970-01-01T01:00:00Z</time>
      </trkpt>
      <trkpt lat="59.281102" lon="18.036995">
        <ele>29.3636</ele>
        <time>1970-01-01T01:00:00Z</time>
      </trkpt>
      <trkpt lat="59.281158" lon="18.037143">
        <ele>29.4545</ele>
        <time>1970-01-01T01:00:00Z</time>
      </trkpt>
      <trkpt lat="59.281199" lon="18.037304">
        <ele>29.6364</ele>
        <time>1970-01-01T01:00:00Z</time>
      </trkpt>
      <trkpt lat="59.281221" lon="18.037502">
        <ele>29.9091</ele>
        <time>1970-01-01T01:00:00Z</time>
      </trkpt>
      <trkpt lat="59.28122" lon="18.037714">
        <ele>30.1818</ele>
        <time>1970-01-01T01:00:00Z</time>
      </trkpt>
      <trkpt lat="59.2812" lon="18.037908">
        <ele>30.3636</ele>
        <time>1970-01-01T01:00:00Z</time>
      </trkpt>
      <trkpt lat="59.2812" lon="18.03809">
        <ele>30.5455</ele>
        <time>1970-01-01T01:00:00Z</time>
      </trkpt>
      <trkpt lat="59.281239" lon="18.038256">
        <ele>30.8182</ele>
        <time>1970-01-01T01:00:00Z</time>
      </trkpt>
      <trkpt lat="59.281296" lon="18.038398">
        <ele>31.0909</ele>
        <time>1970-01-01T01:00:00Z</time>
      </trkpt>
      <trkpt lat="59.281385" lon="18.038511">
        <ele>31.3636</ele>
        <time>1970-01-01T01:00:00Z</time>
      </trkpt>
      <trkpt lat="59.281472" lon="18.038623">
        <ele>31.5455</ele>
        <time>1970-01-01T01:00:00Z</time>
      </trkpt>
      <trkpt lat="59.281529" lon="18.03878">
        <ele>31.7273</ele>
        <time>1970-01-01T01:00:00Z</time>
      </trkpt>
      <trkpt lat="59.281584" lon="18.038957">
        <ele>31.9091</ele>
        <time>1970-01-01T01:00:00Z</time>
      </trkpt>
      <trkpt lat="59.281643" lon="18.039129">
        <ele>32</ele>
        <time>1970-01-01T01:00:00Z</time>
      </trkpt>
      <trkpt lat="59.281703" lon="18.039302">
        <ele>32</ele>
        <time>1970-01-01T01:00:00Z</time>
      </trkpt>
      <trkpt lat="59.281763" lon="18.039472">
        <ele>32</ele>
        <time>1970-01-01T01:00:00Z</time>
      </trkpt>
      <trkpt lat="59.281823" lon="18.03964">
        <ele>32.0909</ele>
        <time>1970-01-01T01:00:00Z</time>
      </trkpt>
      <trkpt lat="59.281882" lon="18.039803">
        <ele>32.1818</ele>
        <time>1970-01-01T01:00:00Z</time>
      </trkpt>
      <trkpt lat="59.281937" lon="18.039951">
        <ele>32.2727</ele>
        <time>1970-01-01T01:00:00Z</time>
      </trkpt>
      <trkpt lat="59.281995" lon="18.040104">
        <ele>32.3636</ele>
        <time>1970-01-01T01:00:00Z</time>
      </trkpt>
      <trkpt lat="59.282059" lon="18.040274">
        <ele>32.5455</ele>
        <time>1970-01-01T01:00:00Z</time>
      </trkpt>
      <trkpt lat="59.282123" lon="18.040431">
        <ele>32.7273</ele>
        <time>1970-01-01T01:00:00Z</time>
      </trkpt>
      <trkpt lat="59.282175" lon="18.040596">
        <ele>33</ele>
        <time>1970-01-01T01:00:00Z</time>
      </trkpt>
      <trkpt lat="59.282235" lon="18.04076">
        <ele>33.2727</ele>
        <time>1970-01-01T01:00:00Z</time>
      </trkpt>
      <trkpt lat="59.2823" lon="18.04092">
        <ele>33.6364</ele>
        <time>1970-01-01T01:00:00Z</time>
      </trkpt>
      <trkpt lat="59.282368" lon="18.041094">
        <ele>34</ele>
        <time>1970-01-01T01:00:00Z</time>
      </trkpt>
      <trkpt lat="59.28242" lon="18.041246">
        <ele>34.2727</ele>
        <time>1970-01-01T01:00:00Z</time>
      </trkpt>
      <trkpt lat="59.282492" lon="18.041413">
        <ele>34.4545</ele>
        <time>1970-01-01T01:00:00Z</time>
      </trkpt>
      <trkpt lat="59.282556" lon="18.041595">
        <ele>34.6364</ele>
        <time>1970-01-01T01:00:00Z</time>
      </trkpt>
      <trkpt lat="59.282603" lon="18.041758">
        <ele>34.7273</ele>
        <time>1970-01-01T01:00:00Z</time>
      </trkpt>
      <trkpt lat="59.282656" lon="18.041904">
        <ele>34.8182</ele>
        <time>1970-01-01T01:00:00Z</time>
      </trkpt>
      <trkpt lat="59.282707" lon="18.04205">
        <ele>34.8182</ele>
        <time>1970-01-01T01:00:00Z</time>
      </trkpt>
      <trkpt lat="59.282756" lon="18.0422">
        <ele>34.8182</ele>
        <time>1970-01-01T01:00:00Z</time>
      </trkpt>
      <trkpt lat="59.282807" lon="18.042353">
        <ele>34.7273</ele>
        <time>1970-01-01T01:00:00Z</time>
      </trkpt>
      <trkpt lat="59.282866" lon="18.04249">
        <ele>34.6364</ele>
        <time>1970-01-01T01:00:00Z</time>
      </trkpt>
      <trkpt lat="59.282947" lon="18.042626">
        <ele>34.4545</ele>
        <time>1970-01-01T01:00:00Z</time>
      </trkpt>
      <trkpt lat="59.283017" lon="18.042741">
        <ele>34.3636</ele>
        <time>1970-01-01T01:00:00Z</time>
      </trkpt>
      <trkpt lat="59.283082" lon="18.042865">
        <ele>34.4545</ele>
        <time>1970-01-01T01:00:00Z</time>
      </trkpt>
      <trkpt lat="59.283147" lon="18.042989">
        <ele>34.7273</ele>
        <time>1970-01-01T01:00:00Z</time>
      </trkpt>
      <trkpt lat="59.283227" lon="18.043144">
        <ele>35.1818</ele>
        <time>1970-01-01T01:00:00Z</time>
      </trkpt>
      <trkpt lat="59.283306" lon="18.043283">
        <ele>35.7273</ele>
        <time>1970-01-01T01:00:00Z</time>
      </trkpt>
      <trkpt lat="59.28339" lon="18.04339">
        <ele>36.2727</ele>
        <time>1970-01-01T01:00:00Z</time>
      </trkpt>
      <trkpt lat="59.283494" lon="18.043322">
        <ele>36.8182</ele>
        <time>1970-01-01T01:00:00Z</time>
      </trkpt>
      <trkpt lat="59.283574" lon="18.043219">
        <ele>37.4545</ele>
        <time>1970-01-01T01:00:00Z</time>
      </trkpt>
      <trkpt lat="59.283665" lon="18.043117">
        <ele>38.1818</ele>
        <time>1970-01-01T01:00:00Z</time>
      </trkpt>
      <trkpt lat="59.283761" lon="18.043026">
        <ele>39</ele>
        <time>1970-01-01T01:00:00Z</time>
      </trkpt>
      <trkpt lat="59.283856" lon="18.042987">
        <ele>39.9091</ele>
        <time>1970-01-01T01:00:00Z</time>
      </trkpt>
      <trkpt lat="59.283951" lon="18.042997">
        <ele>40.8182</ele>
        <time>1970-01-01T01:00:00Z</time>
      </trkpt>
      <trkpt lat="59.284056" lon="18.042962">
        <ele>41.6364</ele>
        <time>1970-01-01T01:00:00Z</time>
      </trkpt>
      <trkpt lat="59.284145" lon="18.042871">
        <ele>42.2727</ele>
        <time>1970-01-01T01:00:00Z</time>
      </trkpt>
      <trkpt lat="59.284235" lon="18.042846">
        <ele>42.7273</ele>
        <time>1970-01-01T01:00:00Z</time>
      </trkpt>
      <trkpt lat="59.284335" lon="18.042791">
        <ele>43.0909</ele>
        <time>1970-01-01T01:00:00Z</time>
      </trkpt>
      <trkpt lat="59.28443" lon="18.042803">
        <ele>43.3636</ele>
        <time>1970-01-01T01:00:00Z</time>
      </trkpt>
      <trkpt lat="59.2845" lon="18.042689">
        <ele>43.6364</ele>
        <time>1970-01-01T01:00:00Z</time>
      </trkpt>
      <trkpt lat="59.284604" lon="18.042647">
        <ele>43.6364</ele>
        <time>1970-01-01T01:00:00Z</time>
      </trkpt>
      <trkpt lat="59.284704" lon="18.042624">
        <ele>43.3636</ele>
        <time>1970-01-01T01:00:00Z</time>
      </trkpt>
      <trkpt lat="59.284819" lon="18.04264">
        <ele>42.9091</ele>
        <time>1970-01-01T01:00:00Z</time>
      </trkpt>
      <trkpt lat="59.28492" lon="18.042651">
        <ele>42.2727</ele>
        <time>1970-01-01T01:00:00Z</time>
      </trkpt>
      <trkpt lat="59.285014" lon="18.042674">
        <ele>41.4545</ele>
        <time>1970-01-01T01:00:00Z</time>
      </trkpt>
      <trkpt lat="59.285122" lon="18.04272">
        <ele>40.5455</ele>
        <time>1970-01-01T01:00:00Z</time>
      </trkpt>
      <trkpt lat="59.285208" lon="18.04278">
        <ele>39.6364</ele>
        <time>1970-01-01T01:00:00Z</time>
      </trkpt>
      <trkpt lat="59.285291" lon="18.042859">
        <ele>38.6364</ele>
        <time>1970-01-01T01:00:00Z</time>
      </trkpt>
      <trkpt lat="59.28537" lon="18.042956">
        <ele>37.6364</ele>
        <time>1970-01-01T01:00:00Z</time>
      </trkpt>
      <trkpt lat="59.285441" lon="18.043077">
        <ele>36.6364</ele>
        <time>1970-01-01T01:00:00Z</time>
      </trkpt>
      <trkpt lat="59.285517" lon="18.043189">
        <ele>35.3636</ele>
        <time>1970-01-01T01:00:00Z</time>
      </trkpt>
      <trkpt lat="59.285613" lon="18.043312">
        <ele>34.0909</ele>
        <time>1970-01-01T01:00:00Z</time>
      </trkpt>
      <trkpt lat="59.285686" lon="18.043424">
        <ele>32.8182</ele>
        <time>1970-01-01T01:00:00Z</time>
      </trkpt>
      <trkpt lat="59.285764" lon="18.043525">
        <ele>31.4545</ele>
        <time>1970-01-01T01:00:00Z</time>
      </trkpt>
      <trkpt lat="59.285842" lon="18.04363">
        <ele>30.1818</ele>
        <time>1970-01-01T01:00:00Z</time>
      </trkpt>
      <trkpt lat="59.285923" lon="18.043723">
        <ele>28.8182</ele>
        <time>1970-01-01T01:00:00Z</time>
      </trkpt>
      <trkpt lat="59.286004" lon="18.043822">
        <ele>27.4545</ele>
        <time>1970-01-01T01:00:00Z</time>
      </trkpt>
      <trkpt lat="59.286083" lon="18.043933">
        <ele>26.0909</ele>
        <time>1970-01-01T01:00:00Z</time>
      </trkpt>
      <trkpt lat="59.286159" lon="18.044029">
        <ele>24.9091</ele>
        <time>1970-01-01T01:00:00Z</time>
      </trkpt>
      <trkpt lat="59.286232" lon="18.044133">
        <ele>23.8182</ele>
        <time>1970-01-01T01:00:00Z</time>
      </trkpt>
      <trkpt lat="59.286322" lon="18.044262">
        <ele>22.8182</ele>
        <time>1970-01-01T01:00:00Z</time>
      </trkpt>
      <trkpt lat="59.286401" lon="18.044351">
        <ele>22.0909</ele>
        <time>1970-01-01T01:00:00Z</time>
      </trkpt>
      <trkpt lat="59.286489" lon="18.04441">
        <ele>21.5455</ele>
        <time>1970-01-01T01:00:00Z</time>
      </trkpt>
      <trkpt lat="59.286576" lon="18.044464">
        <ele>21.1818</ele>
        <time>1970-01-01T01:00:00Z</time>
      </trkpt>
      <trkpt lat="59.286665" lon="18.044581">
        <ele>21</ele>
        <time>1970-01-01T01:00:00Z</time>
      </trkpt>
      <trkpt lat="59.286698" lon="18.044786">
        <ele>20.8182</ele>
        <time>1970-01-01T01:00:00Z</time>
      </trkpt>
      <trkpt lat="59.286667" lon="18.044981">
        <ele>20.8182</ele>
        <time>1970-01-01T01:00:00Z</time>
      </trkpt>
      <trkpt lat="59.286637" lon="18.045167">
        <ele>20.9091</ele>
        <time>1970-01-01T01:00:00Z</time>
      </trkpt>
      <trkpt lat="59.286608" lon="18.045342">
        <ele>21</ele>
        <time>1970-01-01T01:00:00Z</time>
      </trkpt>
      <trkpt lat="59.286585" lon="18.045524">
        <ele>20.9091</ele>
        <time>1970-01-01T01:00:00Z</time>
      </trkpt>
      <trkpt lat="59.286564" lon="18.045705">
        <ele>20.7273</ele>
        <time>1970-01-01T01:00:00Z</time>
      </trkpt>
      <trkpt lat="59.286546" lon="18.045894">
        <ele>20.5455</ele>
        <time>1970-01-01T01:00:00Z</time>
      </trkpt>
      <trkpt lat="59.286536" lon="18.046073">
        <ele>20.3636</ele>
        <time>1970-01-01T01:00:00Z</time>
      </trkpt>
      <trkpt lat="59.286532" lon="18.046257">
        <ele>20.0909</ele>
        <time>1970-01-01T01:00:00Z</time>
      </trkpt>
      <trkpt lat="59.28659" lon="18.046423">
        <ele>19.8182</ele>
        <time>1970-01-01T01:00:00Z</time>
      </trkpt>
      <trkpt lat="59.286639" lon="18.046618">
        <ele>19.5455</ele>
        <time>1970-01-01T01:00:00Z</time>
      </trkpt>
      <trkpt lat="59.286667" lon="18.046798">
        <ele>19.1818</ele>
        <time>1970-01-01T01:00:00Z</time>
      </trkpt>
      <trkpt lat="59.286689" lon="18.046984">
        <ele>18.8182</ele>
        <time>1970-01-01T01:00:00Z</time>
      </trkpt>
      <trkpt lat="59.286712" lon="18.047173">
        <ele>18.4545</ele>
        <time>1970-01-01T01:00:00Z</time>
      </trkpt>
      <trkpt lat="59.286744" lon="18.047349">
        <ele>18.1818</ele>
        <time>1970-01-01T01:00:00Z</time>
      </trkpt>
      <trkpt lat="59.286774" lon="18.047518">
        <ele>18</ele>
        <time>1970-01-01T01:00:00Z</time>
      </trkpt>
      <trkpt lat="59.286804" lon="18.04769">
        <ele>17.9091</ele>
        <time>1970-01-01T01:00:00Z</time>
      </trkpt>
      <trkpt lat="59.286843" lon="18.047896">
        <ele>17.9091</ele>
        <time>1970-01-01T01:00:00Z</time>
      </trkpt>
      <trkpt lat="59.286867" lon="18.048071">
        <ele>17.9091</ele>
        <time>1970-01-01T01:00:00Z</time>
      </trkpt>
      <trkpt lat="59.286897" lon="18.048248">
        <ele>18</ele>
        <time>1970-01-01T01:00:00Z</time>
      </trkpt>
      <trkpt lat="59.286934" lon="18.048412">
        <ele>18.0909</ele>
        <time>1970-01-01T01:00:00Z</time>
      </trkpt>
      <trkpt lat="59.286999" lon="18.048545">
        <ele>18.2727</ele>
        <time>1970-01-01T01:00:00Z</time>
      </trkpt>
      <trkpt lat="59.287064" lon="18.048681">
        <ele>18.5455</ele>
        <time>1970-01-01T01:00:00Z</time>
      </trkpt>
      <trkpt lat="59.287131" lon="18.04881">
        <ele>18.8182</ele>
        <time>1970-01-01T01:00:00Z</time>
      </trkpt>
      <trkpt lat="59.287199" lon="18.048937">
        <ele>19.0909</ele>
        <time>1970-01-01T01:00:00Z</time>
      </trkpt>
      <trkpt lat="59.287277" lon="18.049089">
        <ele>19.2727</ele>
        <time>1970-01-01T01:00:00Z</time>
      </trkpt>
      <trkpt lat="59.287344" lon="18.049234">
        <ele>19.4545</ele>
        <time>1970-01-01T01:00:00Z</time>
      </trkpt>
      <trkpt lat="59.287424" lon="18.049385">
        <ele>19.6364</ele>
        <time>1970-01-01T01:00:00Z</time>
      </trkpt>
      <trkpt lat="59.28751" lon="18.049524">
        <ele>19.8182</ele>
        <time>1970-01-01T01:00:00Z</time>
      </trkpt>
      <trkpt lat="59.287581" lon="18.04964">
        <ele>20</ele>
        <time>1970-01-01T01:00:00Z</time>
      </trkpt>
      <trkpt lat="59.287665" lon="18.049784">
        <ele>20.2727</ele>
        <time>1970-01-01T01:00:00Z</time>
      </trkpt>
      <trkpt lat="59.287731" lon="18.049913">
        <ele>20.7273</ele>
        <time>1970-01-01T01:00:00Z</time>
      </trkpt>
      <trkpt lat="59.287802" lon="18.050039">
        <ele>21.1818</ele>
        <time>1970-01-01T01:00:00Z</time>
      </trkpt>
      <trkpt lat="59.28788" lon="18.05019">
        <ele>21.8182</ele>
        <time>1970-01-01T01:00:00Z</time>
      </trkpt>
      <trkpt lat="59.287942" lon="18.050319">
        <ele>22.6364</ele>
        <time>1970-01-01T01:00:00Z</time>
      </trkpt>
      <trkpt lat="59.28802" lon="18.050474">
        <ele>23.3636</ele>
        <time>1970-01-01T01:00:00Z</time>
      </trkpt>
      <trkpt lat="59.288095" lon="18.05062">
        <ele>24</ele>
        <time>1970-01-01T01:00:00Z</time>
      </trkpt>
      <trkpt lat="59.28817" lon="18.050767">
        <ele>24.5455</ele>
        <time>1970-01-01T01:00:00Z</time>
      </trkpt>
      <trkpt lat="59.288244" lon="18.050919">
        <ele>25</ele>
        <time>1970-01-01T01:00:00Z</time>
      </trkpt>
      <trkpt lat="59.288317" lon="18.051072">
        <ele>25.2727</ele>
        <time>1970-01-01T01:00:00Z</time>
      </trkpt>
      <trkpt lat="59.288384" lon="18.0512">
        <ele>25.3636</ele>
        <time>1970-01-01T01:00:00Z</time>
      </trkpt>
      <trkpt lat="59.28846" lon="18.05131">
        <ele>25.0909</ele>
        <time>1970-01-01T01:00:00Z</time>
      </trkpt>
      <trkpt lat="59.288532" lon="18.051415">
        <ele>24.6364</ele>
        <time>1970-01-01T01:00:00Z</time>
      </trkpt>
      <trkpt lat="59.28862" lon="18.05154">
        <ele>24.0909</ele>
        <time>1970-01-01T01:00:00Z</time>
      </trkpt>
      <trkpt lat="59.288704" lon="18.051643">
        <ele>23.4545</ele>
        <time>1970-01-01T01:00:00Z</time>
      </trkpt>
      <trkpt lat="59.288789" lon="18.051737">
        <ele>22.6364</ele>
        <time>1970-01-01T01:00:00Z</time>
      </trkpt>
      <trkpt lat="59.288874" lon="18.051851">
        <ele>22</ele>
        <time>1970-01-01T01:00:00Z</time>
      </trkpt>
      <trkpt lat="59.288954" lon="18.051961">
        <ele>21.4545</ele>
        <time>1970-01-01T01:00:00Z</time>
      </trkpt>
      <trkpt lat="59.289031" lon="18.052063">
        <ele>21.0909</ele>
        <time>1970-01-01T01:00:00Z</time>
      </trkpt>
      <trkpt lat="59.28912" lon="18.052188">
        <ele>20.8182</ele>
        <time>1970-01-01T01:00:00Z</time>
      </trkpt>
      <trkpt lat="59.289206" lon="18.052326">
        <ele>20.5455</ele>
        <time>1970-01-01T01:00:00Z</time>
      </trkpt>
      <trkpt lat="59.289278" lon="18.052441">
        <ele>20.4545</ele>
        <time>1970-01-01T01:00:00Z</time>
      </trkpt>
      <trkpt lat="59.289351" lon="18.052553">
        <ele>20.6364</ele>
        <time>1970-01-01T01:00:00Z</time>
      </trkpt>
      <trkpt lat="59.289422" lon="18.052673">
        <ele>20.8182</ele>
        <time>1970-01-01T01:00:00Z</time>
      </trkpt>
      <trkpt lat="59.289489" lon="18.052796">
        <ele>20.9091</ele>
        <time>1970-01-01T01:00:00Z</time>
      </trkpt>
      <trkpt lat="59.289574" lon="18.052943">
        <ele>20.8182</ele>
        <time>1970-01-01T01:00:00Z</time>
      </trkpt>
      <trkpt lat="59.289648" lon="18.05307">
        <ele>20.7273</ele>
        <time>1970-01-01T01:00:00Z</time>
      </trkpt>
      <trkpt lat="59.289722" lon="18.053213">
        <ele>20.6364</ele>
        <time>1970-01-01T01:00:00Z</time>
      </trkpt>
      <trkpt lat="59.289788" lon="18.05334">
        <ele>20.5455</ele>
        <time>1970-01-01T01:00:00Z</time>
      </trkpt>
      <trkpt lat="59.289858" lon="18.053467">
        <ele>20.2727</ele>
        <time>1970-01-01T01:00:00Z</time>
      </trkpt>
      <trkpt lat="59.289939" lon="18.053605">
        <ele>20</ele>
        <time>1970-01-01T01:00:00Z</time>
      </trkpt>
      <trkpt lat="59.29001" lon="18.053735">
        <ele>19.8182</ele>
        <time>1970-01-01T01:00:00Z</time>
      </trkpt>
      <trkpt lat="59.290094" lon="18.053873">
        <ele>19.6364</ele>
        <time>1970-01-01T01:00:00Z</time>
      </trkpt>
      <trkpt lat="59.29017" lon="18.054007">
        <ele>19.5455</ele>
        <time>1970-01-01T01:00:00Z</time>
      </trkpt>
      <trkpt lat="59.29024" lon="18.054137">
        <ele>19.3636</ele>
        <time>1970-01-01T01:00:00Z</time>
      </trkpt>
      <trkpt lat="59.290318" lon="18.054274">
        <ele>19.2727</ele>
        <time>1970-01-01T01:00:00Z</time>
      </trkpt>
      <trkpt lat="59.290397" lon="18.054381">
        <ele>19.2727</ele>
        <time>1970-01-01T01:00:00Z</time>
      </trkpt>
      <trkpt lat="59.290484" lon="18.054497">
        <ele>19.2727</ele>
        <time>1970-01-01T01:00:00Z</time>
      </trkpt>
      <trkpt lat="59.290564" lon="18.054617">
        <ele>19.2727</ele>
        <time>1970-01-01T01:00:00Z</time>
      </trkpt>
      <trkpt lat="59.290644" lon="18.054746">
        <ele>19.2727</ele>
        <time>1970-01-01T01:00:00Z</time>
      </trkpt>
      <trkpt lat="59.290728" lon="18.054884">
        <ele>19.3636</ele>
        <time>1970-01-01T01:00:00Z</time>
      </trkpt>
      <trkpt lat="59.290813" lon="18.055024">
        <ele>19.4545</ele>
        <time>1970-01-01T01:00:00Z</time>
      </trkpt>
      <trkpt lat="59.290887" lon="18.055176">
        <ele>19.6364</ele>
        <time>1970-01-01T01:00:00Z</time>
      </trkpt>
      <trkpt lat="59.29096" lon="18.055344">
        <ele>19.9091</ele>
        <time>1970-01-01T01:00:00Z</time>
      </trkpt>
      <trkpt lat="59.291029" lon="18.055467">
        <ele>20.1818</ele>
        <time>1970-01-01T01:00:00Z</time>
      </trkpt>
      <trkpt lat="59.291098" lon="18.055584">
        <ele>20.6364</ele>
        <time>1970-01-01T01:00:00Z</time>
      </trkpt>
      <trkpt lat="59.291143" lon="18.055746">
        <ele>21.0909</ele>
        <time>1970-01-01T01:00:00Z</time>
      </trkpt>
      <trkpt lat="59.291143" lon="18.055924">
        <ele>21.5455</ele>
        <time>1970-01-01T01:00:00Z</time>
      </trkpt>
      <trkpt lat="59.291137" lon="18.05615">
        <ele>22</ele>
        <time>1970-01-01T01:00:00Z</time>
      </trkpt>
      <trkpt lat="59.291122" lon="18.056331">
        <ele>22.3636</ele>
        <time>1970-01-01T01:00:00Z</time>
      </trkpt>
      <trkpt lat="59.291101" lon="18.056531">
        <ele>22.7273</ele>
        <time>1970-01-01T01:00:00Z</time>
      </trkpt>
      <trkpt lat="59.291094" lon="18.056724">
        <ele>23.0909</ele>
        <time>1970-01-01T01:00:00Z</time>
      </trkpt>
      <trkpt lat="59.291105" lon="18.05691">
        <ele>23.5455</ele>
        <time>1970-01-01T01:00:00Z</time>
      </trkpt>
      <trkpt lat="59.291138" lon="18.057114">
        <ele>23.8182</ele>
        <time>1970-01-01T01:00:00Z</time>
      </trkpt>
      <trkpt lat="59.291157" lon="18.057292">
        <ele>24</ele>
        <time>1970-01-01T01:00:00Z</time>
      </trkpt>
      <trkpt lat="59.291081" lon="18.057404">
        <ele>24.0909</ele>
        <time>1970-01-01T01:00:00Z</time>
      </trkpt>
      <trkpt lat="59.290994" lon="18.057514">
        <ele>24.0909</ele>
        <time>1970-01-01T01:00:00Z</time>
      </trkpt>
      <trkpt lat="59.290907" lon="18.057634">
        <ele>24.0909</ele>
        <time>1970-01-01T01:00:00Z</time>
      </trkpt>
      <trkpt lat="59.290824" lon="18.05775">
        <ele>24.0909</ele>
        <time>1970-01-01T01:00:00Z</time>
      </trkpt>
      <trkpt lat="59.290752" lon="18.057864">
        <ele>24.0909</ele>
        <time>1970-01-01T01:00:00Z</time>
      </trkpt>
      <trkpt lat="59.290676" lon="18.057998">
        <ele>24.0909</ele>
        <time>1970-01-01T01:00:00Z</time>
      </trkpt>
      <trkpt lat="59.290599" lon="18.058124">
        <ele>24.0909</ele>
        <time>1970-01-01T01:00:00Z</time>
      </trkpt>
      <trkpt lat="59.290526" lon="18.058261">
        <ele>24.0909</ele>
        <time>1970-01-01T01:00:00Z</time>
      </trkpt>
      <trkpt lat="59.290459" lon="18.058386">
        <ele>23.9091</ele>
        <time>1970-01-01T01:00:00Z</time>
      </trkpt>
      <trkpt lat="59.29038" lon="18.058494">
        <ele>23.8182</ele>
        <time>1970-01-01T01:00:00Z</time>
      </trkpt>
      <trkpt lat="59.290299" lon="18.058618">
        <ele>23.7273</ele>
        <time>1970-01-01T01:00:00Z</time>
      </trkpt>
      <trkpt lat="59.290224" lon="18.058737">
        <ele>23.5455</ele>
        <time>1970-01-01T01:00:00Z</time>
      </trkpt>
      <trkpt lat="59.290138" lon="18.058851">
        <ele>23.3636</ele>
        <time>1970-01-01T01:00:00Z</time>
      </trkpt>
      <trkpt lat="59.290061" lon="18.05899">
        <ele>23.1818</ele>
        <time>1970-01-01T01:00:00Z</time>
      </trkpt>
      <trkpt lat="59.289986" lon="18.059114">
        <ele>23.0909</ele>
        <time>1970-01-01T01:00:00Z</time>
      </trkpt>
      <trkpt lat="59.289914" lon="18.05923">
        <ele>23.0909</ele>
        <time>1970-01-01T01:00:00Z</time>
      </trkpt>
      <trkpt lat="59.289845" lon="18.059374">
        <ele>23.0909</ele>
        <time>1970-01-01T01:00:00Z</time>
      </trkpt>
      <trkpt lat="59.289771" lon="18.059494">
        <ele>23.0909</ele>
        <time>1970-01-01T01:00:00Z</time>
      </trkpt>
      <trkpt lat="59.289687" lon="18.059614">
        <ele>23.0909</ele>
        <time>1970-01-01T01:00:00Z</time>
      </trkpt>
      <trkpt lat="59.289612" lon="18.059747">
        <ele>23.2727</ele>
        <time>1970-01-01T01:00:00Z</time>
      </trkpt>
      <trkpt lat="59.289538" lon="18.059894">
        <ele>23.5455</ele>
        <time>1970-01-01T01:00:00Z</time>
      </trkpt>
      <trkpt lat="59.289459" lon="18.060018">
        <ele>23.8182</ele>
        <time>1970-01-01T01:00:00Z</time>
      </trkpt>
      <trkpt lat="59.28938" lon="18.060143">
        <ele>24.1818</ele>
        <time>1970-01-01T01:00:00Z</time>
      </trkpt>
      <trkpt lat="59.289314" lon="18.060267">
        <ele>24.5455</ele>
        <time>1970-01-01T01:00:00Z</time>
      </trkpt>
      <trkpt lat="59.289253" lon="18.06042">
        <ele>24.9091</ele>
        <time>1970-01-01T01:00:00Z</time>
      </trkpt>
      <trkpt lat="59.289196" lon="18.060573">
        <ele>25.0909</ele>
        <time>1970-01-01T01:00:00Z</time>
      </trkpt>
      <trkpt lat="59.289138" lon="18.06074">
        <ele>25.1818</ele>
        <time>1970-01-01T01:00:00Z</time>
      </trkpt>
      <trkpt lat="59.289096" lon="18.060903">
        <ele>25.2727</ele>
        <time>1970-01-01T01:00:00Z</time>
      </trkpt>
      <trkpt lat="59.289068" lon="18.061091">
        <ele>25.3636</ele>
        <time>1970-01-01T01:00:00Z</time>
      </trkpt>
      <trkpt lat="59.289002" lon="18.061247">
        <ele>25.4545</ele>
        <time>1970-01-01T01:00:00Z</time>
      </trkpt>
      <trkpt lat="59.288903" lon="18.061255">
        <ele>25.4545</ele>
        <time>1970-01-01T01:00:00Z</time>
      </trkpt>
      <trkpt lat="59.288819" lon="18.061159">
        <ele>25.3636</ele>
        <time>1970-01-01T01:00:00Z</time>
      </trkpt>
      <trkpt lat="59.288731" lon="18.061085">
        <ele>25.2727</ele>
        <time>1970-01-01T01:00:00Z</time>
      </trkpt>
      <trkpt lat="59.288635" lon="18.061003">
        <ele>25.1818</ele>
        <time>1970-01-01T01:00:00Z</time>
      </trkpt>
      <trkpt lat="59.288531" lon="18.060984">
        <ele>25.0909</ele>
        <time>1970-01-01T01:00:00Z</time>
      </trkpt>
      <trkpt lat="59.288433" lon="18.060952">
        <ele>25</ele>
        <time>1970-01-01T01:00:00Z</time>
      </trkpt>
      <trkpt lat="59.288338" lon="18.060883">
        <ele>25</ele>
        <time>1970-01-01T01:00:00Z</time>
      </trkpt>
      <trkpt lat="59.288259" lon="18.060775">
        <ele>24.9091</ele>
        <time>1970-01-01T01:00:00Z</time>
      </trkpt>
      <trkpt lat="59.28819" lon="18.060646">
        <ele>24.8182</ele>
        <time>1970-01-01T01:00:00Z</time>
      </trkpt>
      <trkpt lat="59.288115" lon="18.060515">
        <ele>24.7273</ele>
        <time>1970-01-01T01:00:00Z</time>
      </trkpt>
      <trkpt lat="59.288043" lon="18.060396">
        <ele>24.6364</ele>
        <time>1970-01-01T01:00:00Z</time>
      </trkpt>
      <trkpt lat="59.287974" lon="18.060264">
        <ele>24.4545</ele>
        <time>1970-01-01T01:00:00Z</time>
      </trkpt>
      <trkpt lat="59.287895" lon="18.060141">
        <ele>24.2727</ele>
        <time>1970-01-01T01:00:00Z</time>
      </trkpt>
      <trkpt lat="59.287811" lon="18.060006">
        <ele>24.0909</ele>
        <time>1970-01-01T01:00:00Z</time>
      </trkpt>
      <trkpt lat="59.287732" lon="18.059879">
        <ele>23.9091</ele>
        <time>1970-01-01T01:00:00Z</time>
      </trkpt>
      <trkpt lat="59.287661" lon="18.059761">
        <ele>23.7273</ele>
        <time>1970-01-01T01:00:00Z</time>
      </trkpt>
      <trkpt lat="59.287583" lon="18.059642">
        <ele>23.5455</ele>
        <time>1970-01-01T01:00:00Z</time>
      </trkpt>
      <trkpt lat="59.28751" lon="18.059516">
        <ele>23.3636</ele>
        <time>1970-01-01T01:00:00Z</time>
      </trkpt>
      <trkpt lat="59.287433" lon="18.059394">
        <ele>23.2727</ele>
        <time>1970-01-01T01:00:00Z</time>
      </trkpt>
      <trkpt lat="59.287359" lon="18.059261">
        <ele>23.1818</ele>
        <time>1970-01-01T01:00:00Z</time>
      </trkpt>
      <trkpt lat="59.287286" lon="18.05914">
        <ele>23.0909</ele>
        <time>1970-01-01T01:00:00Z</time>
      </trkpt>
      <trkpt lat="59.287202" lon="18.059029">
        <ele>23</ele>
        <time>1970-01-01T01:00:00Z</time>
      </trkpt>
      <trkpt lat="59.287121" lon="18.058883">
        <ele>23</ele>
        <time>1970-01-01T01:00:00Z</time>
      </trkpt>
      <trkpt lat="59.287055" lon="18.058763">
        <ele>23</ele>
        <time>1970-01-01T01:00:00Z</time>
      </trkpt>
      <trkpt lat="59.286985" lon="18.058641">
        <ele>23</ele>
        <time>1970-01-01T01:00:00Z</time>
      </trkpt>
      <trkpt lat="59.286908" lon="18.058507">
        <ele>23</ele>
        <time>1970-01-01T01:00:00Z</time>
      </trkpt>
      <trkpt lat="59.286836" lon="18.058358">
        <ele>22.9091</ele>
        <time>1970-01-01T01:00:00Z</time>
      </trkpt>
      <trkpt lat="59.286758" lon="18.058202">
        <ele>22.9091</ele>
        <time>1970-01-01T01:00:00Z</time>
      </trkpt>
      <trkpt lat="59.286679" lon="18.05807">
        <ele>22.9091</ele>
        <time>1970-01-01T01:00:00Z</time>
      </trkpt>
      <trkpt lat="59.286611" lon="18.057952">
        <ele>22.8182</ele>
        <time>1970-01-01T01:00:00Z</time>
      </trkpt>
      <trkpt lat="59.28653" lon="18.057815">
        <ele>22.7273</ele>
        <time>1970-01-01T01:00:00Z</time>
      </trkpt>
      <trkpt lat="59.286452" lon="18.057686">
        <ele>22.6364</ele>
        <time>1970-01-01T01:00:00Z</time>
      </trkpt>
      <trkpt lat="59.286379" lon="18.057562">
        <ele>22.5455</ele>
        <time>1970-01-01T01:00:00Z</time>
      </trkpt>
      <trkpt lat="59.286306" lon="18.05743">
        <ele>22.4545</ele>
        <time>1970-01-01T01:00:00Z</time>
      </trkpt>
      <trkpt lat="59.286233" lon="18.057306">
        <ele>22.3636</ele>
        <time>1970-01-01T01:00:00Z</time>
      </trkpt>
      <trkpt lat="59.286164" lon="18.057179">
        <ele>22.2727</ele>
        <time>1970-01-01T01:00:00Z</time>
      </trkpt>
      <trkpt lat="59.286088" lon="18.057051">
        <ele>22.2727</ele>
        <time>1970-01-01T01:00:00Z</time>
      </trkpt>
      <trkpt lat="59.28601" lon="18.056919">
        <ele>22.4545</ele>
        <time>1970-01-01T01:00:00Z</time>
      </trkpt>
      <trkpt lat="59.285925" lon="18.05679">
        <ele>22.5455</ele>
        <time>1970-01-01T01:00:00Z</time>
      </trkpt>
      <trkpt lat="59.285841" lon="18.056655">
        <ele>22.6364</ele>
        <time>1970-01-01T01:00:00Z</time>
      </trkpt>
      <trkpt lat="59.285765" lon="18.056519">
        <ele>22.8182</ele>
        <time>1970-01-01T01:00:00Z</time>
      </trkpt>
      <trkpt lat="59.285685" lon="18.056366">
        <ele>23</ele>
        <time>1970-01-01T01:00:00Z</time>
      </trkpt>
      <trkpt lat="59.285609" lon="18.056249">
        <ele>23.1818</ele>
        <time>1970-01-01T01:00:00Z</time>
      </trkpt>
      <trkpt lat="59.285536" lon="18.056128">
        <ele>23.3636</ele>
        <time>1970-01-01T01:00:00Z</time>
      </trkpt>
      <trkpt lat="59.285458" lon="18.055992">
        <ele>23.5455</ele>
        <time>1970-01-01T01:00:00Z</time>
      </trkpt>
      <trkpt lat="59.285388" lon="18.055878">
        <ele>23.7273</ele>
        <time>1970-01-01T01:00:00Z</time>
      </trkpt>
      <trkpt lat="59.285309" lon="18.055747">
        <ele>23.8182</ele>
        <time>1970-01-01T01:00:00Z</time>
      </trkpt>
      <trkpt lat="59.285224" lon="18.055618">
        <ele>23.8182</ele>
        <time>1970-01-01T01:00:00Z</time>
      </trkpt>
      <trkpt lat="59.285143" lon="18.055471">
        <ele>23.7273</ele>
        <time>1970-01-01T01:00:00Z</time>
      </trkpt>
      <trkpt lat="59.285069" lon="18.055334">
        <ele>23.6364</ele>
        <time>1970-01-01T01:00:00Z</time>
      </trkpt>
      <trkpt lat="59.284996" lon="18.055202">
        <ele>23.6364</ele>
        <time>1970-01-01T01:00:00Z</time>
      </trkpt>
      <trkpt lat="59.284909" lon="18.055071">
        <ele>23.7273</ele>
        <time>1970-01-01T01:00:00Z</time>
      </trkpt>
      <trkpt lat="59.284838" lon="18.054935">
        <ele>23.8182</ele>
        <time>1970-01-01T01:00:00Z</time>
      </trkpt>
      <trkpt lat="59.284781" lon="18.054786">
        <ele>24</ele>
        <time>1970-01-01T01:00:00Z</time>
      </trkpt>
      <trkpt lat="59.284718" lon="18.054655">
        <ele>24.1818</ele>
        <time>1970-01-01T01:00:00Z</time>
      </trkpt>
      <trkpt lat="59.284643" lon="18.054536">
        <ele>24.4545</ele>
        <time>1970-01-01T01:00:00Z</time>
      </trkpt>
      <trkpt lat="59.284568" lon="18.054412">
        <ele>24.7273</ele>
        <time>1970-01-01T01:00:00Z</time>
      </trkpt>
      <trkpt lat="59.284499" lon="18.054285">
        <ele>25.1818</ele>
        <time>1970-01-01T01:00:00Z</time>
      </trkpt>
      <trkpt lat="59.284414" lon="18.054139">
        <ele>25.6364</ele>
        <time>1970-01-01T01:00:00Z</time>
      </trkpt>
      <trkpt lat="59.284327" lon="18.053999">
        <ele>26</ele>
        <time>1970-01-01T01:00:00Z</time>
      </trkpt>
      <trkpt lat="59.284276" lon="18.053852">
        <ele>26.3636</ele>
        <time>1970-01-01T01:00:00Z</time>
      </trkpt>
      <trkpt lat="59.284233" lon="18.053698">
        <ele>26.5455</ele>
        <time>1970-01-01T01:00:00Z</time>
      </trkpt>
      <trkpt lat="59.284207" lon="18.053508">
        <ele>26.5455</ele>
        <time>1970-01-01T01:00:00Z</time>
      </trkpt>
      <trkpt lat="59.284221" lon="18.053329">
        <ele>26.5455</ele>
        <time>1970-01-01T01:00:00Z</time>
      </trkpt>
      <trkpt lat="59.284243" lon="18.053148">
        <ele>26.3636</ele>
        <time>1970-01-01T01:00:00Z</time>
      </trkpt>
      <trkpt lat="59.284253" lon="18.052963">
        <ele>26.2727</ele>
        <time>1970-01-01T01:00:00Z</time>
      </trkpt>
      <trkpt lat="59.284281" lon="18.052771">
        <ele>26</ele>
        <time>1970-01-01T01:00:00Z</time>
      </trkpt>
      <trkpt lat="59.284296" lon="18.052587">
        <ele>25.7273</ele>
        <time>1970-01-01T01:00:00Z</time>
      </trkpt>
      <trkpt lat="59.28431" lon="18.052381">
        <ele>25.4545</ele>
        <time>1970-01-01T01:00:00Z</time>
      </trkpt>
      <trkpt lat="59.284324" lon="18.052184">
        <ele>25.2727</ele>
        <time>1970-01-01T01:00:00Z</time>
      </trkpt>
      <trkpt lat="59.284341" lon="18.051983">
        <ele>25.2727</ele>
        <time>1970-01-01T01:00:00Z</time>
      </trkpt>
      <trkpt lat="59.284369" lon="18.051793">
        <ele>25.3636</ele>
        <time>1970-01-01T01:00:00Z</time>
      </trkpt>
      <trkpt lat="59.284398" lon="18.051613">
        <ele>25.5455</ele>
        <time>1970-01-01T01:00:00Z</time>
      </trkpt>
      <trkpt lat="59.284434" lon="18.05145">
        <ele>25.9091</ele>
        <time>1970-01-01T01:00:00Z</time>
      </trkpt>
      <trkpt lat="59.284475" lon="18.051279">
        <ele>26.2727</ele>
        <time>1970-01-01T01:00:00Z</time>
      </trkpt>
      <trkpt lat="59.284514" lon="18.051094">
        <ele>26.7273</ele>
        <time>1970-01-01T01:00:00Z</time>
      </trkpt>
      <trkpt lat="59.284559" lon="18.050913">
        <ele>27.0909</ele>
        <time>1970-01-01T01:00:00Z</time>
      </trkpt>
      <trkpt lat="59.284612" lon="18.050748">
        <ele>27.5455</ele>
        <time>1970-01-01T01:00:00Z</time>
      </trkpt>
      <trkpt lat="59.284656" lon="18.050586">
        <ele>28</ele>
        <time>1970-01-01T01:00:00Z</time>
      </trkpt>
      <trkpt lat="59.284708" lon="18.050433">
        <ele>28.2727</ele>
        <time>1970-01-01T01:00:00Z</time>
      </trkpt>
      <trkpt lat="59.284762" lon="18.05029">
        <ele>28.4545</ele>
        <time>1970-01-01T01:00:00Z</time>
      </trkpt>
      <trkpt lat="59.284804" lon="18.050126">
        <ele>28.5455</ele>
        <time>1970-01-01T01:00:00Z</time>
      </trkpt>
      <trkpt lat="59.284856" lon="18.049951">
        <ele>28.5455</ele>
        <time>1970-01-01T01:00:00Z</time>
      </trkpt>
      <trkpt lat="59.284919" lon="18.049814">
        <ele>28.4545</ele>
        <time>1970-01-01T01:00:00Z</time>
      </trkpt>
      <trkpt lat="59.284983" lon="18.04967">
        <ele>28.2727</ele>
        <time>1970-01-01T01:00:00Z</time>
      </trkpt>
      <trkpt lat="59.285046" lon="18.049541">
        <ele>28.1818</ele>
        <time>1970-01-01T01:00:00Z</time>
      </trkpt>
      <trkpt lat="59.285104" lon="18.049396">
        <ele>28</ele>
        <time>1970-01-01T01:00:00Z</time>
      </trkpt>
      <trkpt lat="59.285164" lon="18.049236">
        <ele>27.8182</ele>
        <time>1970-01-01T01:00:00Z</time>
      </trkpt>
      <trkpt lat="59.285212" lon="18.049051">
        <ele>27.7273</ele>
        <time>1970-01-01T01:00:00Z</time>
      </trkpt>
      <trkpt lat="59.285216" lon="18.048867">
        <ele>27.6364</ele>
        <time>1970-01-01T01:00:00Z</time>
      </trkpt>
      <trkpt lat="59.285226" lon="18.04866">
        <ele>27.7273</ele>
        <time>1970-01-01T01:00:00Z</time>
      </trkpt>
      <trkpt lat="59.285251" lon="18.048481">
        <ele>27.9091</ele>
        <time>1970-01-01T01:00:00Z</time>
      </trkpt>
      <trkpt lat="59.285256" lon="18.048279">
        <ele>28.1818</ele>
        <time>1970-01-01T01:00:00Z</time>
      </trkpt>
      <trkpt lat="59.285239" lon="18.048086">
        <ele>28.5455</ele>
        <time>1970-01-01T01:00:00Z</time>
      </trkpt>
      <trkpt lat="59.285209" lon="18.047918">
        <ele>29.0909</ele>
        <time>1970-01-01T01:00:00Z</time>
      </trkpt>
      <trkpt lat="59.285161" lon="18.04775">
        <ele>29.7273</ele>
        <time>1970-01-01T01:00:00Z</time>
      </trkpt>
      <trkpt lat="59.285131" lon="18.047572">
        <ele>30.2727</ele>
        <time>1970-01-01T01:00:00Z</time>
      </trkpt>
      <trkpt lat="59.285077" lon="18.047408">
        <ele>30.9091</ele>
        <time>1970-01-01T01:00:00Z</time>
      </trkpt>
      <trkpt lat="59.285014" lon="18.047234">
        <ele>31.5455</ele>
        <time>1970-01-01T01:00:00Z</time>
      </trkpt>
      <trkpt lat="59.284951" lon="18.047073">
        <ele>32.0909</ele>
        <time>1970-01-01T01:00:00Z</time>
      </trkpt>
      <trkpt lat="59.284881" lon="18.046939">
        <ele>32.6364</ele>
        <time>1970-01-01T01:00:00Z</time>
      </trkpt>
      <trkpt lat="59.284813" lon="18.04681">
        <ele>33.0909</ele>
        <time>1970-01-01T01:00:00Z</time>
      </trkpt>
      <trkpt lat="59.284734" lon="18.046681">
        <ele>33.4545</ele>
        <time>1970-01-01T01:00:00Z</time>
      </trkpt>
      <trkpt lat="59.284642" lon="18.046577">
        <ele>33.7273</ele>
        <time>1970-01-01T01:00:00Z</time>
      </trkpt>
      <trkpt lat="59.28457" lon="18.046452">
        <ele>33.9091</ele>
        <time>1970-01-01T01:00:00Z</time>
      </trkpt>
      <trkpt lat="59.284485" lon="18.046337">
        <ele>34</ele>
        <time>1970-01-01T01:00:00Z</time>
      </trkpt>
      <trkpt lat="59.284397" lon="18.046233">
        <ele>34.0909</ele>
        <time>1970-01-01T01:00:00Z</time>
      </trkpt>
      <trkpt lat="59.284315" lon="18.046135">
        <ele>34.1818</ele>
        <time>1970-01-01T01:00:00Z</time>
      </trkpt>
      <trkpt lat="59.284232" lon="18.046033">
        <ele>34.2727</ele>
        <time>1970-01-01T01:00:00Z</time>
      </trkpt>
      <trkpt lat="59.284139" lon="18.045936">
        <ele>34.2727</ele>
        <time>1970-01-01T01:00:00Z</time>
      </trkpt>
      <trkpt lat="59.284054" lon="18.045831">
        <ele>34.2727</ele>
        <time>1970-01-01T01:00:00Z</time>
      </trkpt>
      <trkpt lat="59.283978" lon="18.045718">
        <ele>34.2727</ele>
        <time>1970-01-01T01:00:00Z</time>
      </trkpt>
      <trkpt lat="59.283898" lon="18.045612">
        <ele>34.2727</ele>
        <time>1970-01-01T01:00:00Z</time>
      </trkpt>
      <trkpt lat="59.283821" lon="18.045487">
        <ele>34.1818</ele>
        <time>1970-01-01T01:00:00Z</time>
      </trkpt>
      <trkpt lat="59.283746" lon="18.045358">
        <ele>34</ele>
        <time>1970-01-01T01:00:00Z</time>
      </trkpt>
      <trkpt lat="59.283674" lon="18.04524">
        <ele>33.8182</ele>
        <time>1970-01-01T01:00:00Z</time>
      </trkpt>
      <trkpt lat="59.283598" lon="18.045118">
        <ele>33.6364</ele>
        <time>1970-01-01T01:00:00Z</time>
      </trkpt>
      <trkpt lat="59.283526" lon="18.045009">
        <ele>33.2727</ele>
        <time>1970-01-01T01:00:00Z</time>
      </trkpt>
      <trkpt lat="59.283441" lon="18.044919">
        <ele>32.9091</ele>
        <time>1970-01-01T01:00:00Z</time>
      </trkpt>
      <trkpt lat="59.283356" lon="18.044838">
        <ele>32.5455</ele>
        <time>1970-01-01T01:00:00Z</time>
      </trkpt>
      <trkpt lat="59.283277" lon="18.044728">
        <ele>32.2727</ele>
        <time>1970-01-01T01:00:00Z</time>
      </trkpt>
      <trkpt lat="59.283209" lon="18.044592">
        <ele>31.9091</ele>
        <time>1970-01-01T01:00:00Z</time>
      </trkpt>
      <trkpt lat="59.283144" lon="18.04446">
        <ele>31.5455</ele>
        <time>1970-01-01T01:00:00Z</time>
      </trkpt>
      <trkpt lat="59.283061" lon="18.044351">
        <ele>31.1818</ele>
        <time>1970-01-01T01:00:00Z</time>
      </trkpt>
      <trkpt lat="59.282991" lon="18.044212">
        <ele>30.9091</ele>
        <time>1970-01-01T01:00:00Z</time>
      </trkpt>
      <trkpt lat="59.282931" lon="18.044039">
        <ele>30.7273</ele>
        <time>1970-01-01T01:00:00Z</time>
      </trkpt>
      <trkpt lat="59.282843" lon="18.043975">
        <ele>30.6364</ele>
        <time>1970-01-01T01:00:00Z</time>
      </trkpt>
      <trkpt lat="59.282737" lon="18.043987">
        <ele>30.5455</ele>
        <time>1970-01-01T01:00:00Z</time>
      </trkpt>
      <trkpt lat="59.28263" lon="18.044005">
        <ele>30.5455</ele>
        <time>1970-01-01T01:00:00Z</time>
      </trkpt>
      <trkpt lat="59.282536" lon="18.043967">
        <ele>30.5455</ele>
        <time>1970-01-01T01:00:00Z</time>
      </trkpt>
      <trkpt lat="59.282425" lon="18.043914">
        <ele>30.5455</ele>
        <time>1970-01-01T01:00:00Z</time>
      </trkpt>
      <trkpt lat="59.282325" lon="18.043895">
        <ele>30.5455</ele>
        <time>1970-01-01T01:00:00Z</time>
      </trkpt>
      <trkpt lat="59.282229" lon="18.043868">
        <ele>30.7273</ele>
        <time>1970-01-01T01:00:00Z</time>
      </trkpt>
      <trkpt lat="59.28214" lon="18.043835">
        <ele>30.9091</ele>
        <time>1970-01-01T01:00:00Z</time>
      </trkpt>
      <trkpt lat="59.282039" lon="18.043757">
        <ele>31.0909</ele>
        <time>1970-01-01T01:00:00Z</time>
      </trkpt>
      <trkpt lat="59.281953" lon="18.04363">
        <ele>31.2727</ele>
        <time>1970-01-01T01:00:00Z</time>
      </trkpt>
      <trkpt lat="59.281874" lon="18.043488">
        <ele>31.5455</ele>
        <time>1970-01-01T01:00:00Z</time>
      </trkpt>
      <trkpt lat="59.281785" lon="18.043375">
        <ele>31.7273</ele>
        <time>1970-01-01T01:00:00Z</time>
      </trkpt>
      <trkpt lat="59.281701" lon="18.043236">
        <ele>31.9091</ele>
        <time>1970-01-01T01:00:00Z</time>
      </trkpt>
      <trkpt lat="59.281636" lon="18.043109">
        <ele>32.0909</ele>
        <time>1970-01-01T01:00:00Z</time>
      </trkpt>
      <trkpt lat="59.281581" lon="18.042964">
        <ele>32.1818</ele>
        <time>1970-01-01T01:00:00Z</time>
      </trkpt>
      <trkpt lat="59.281524" lon="18.042818">
        <ele>32.2727</ele>
        <time>1970-01-01T01:00:00Z</time>
      </trkpt>
      <trkpt lat="59.281491" lon="18.042641">
        <ele>32.2727</ele>
        <time>1970-01-01T01:00:00Z</time>
      </trkpt>
      <trkpt lat="59.281462" lon="18.042432">
        <ele>32.0909</ele>
        <time>1970-01-01T01:00:00Z</time>
      </trkpt>
      <trkpt lat="59.281462" lon="18.042251">
        <ele>31.9091</ele>
        <time>1970-01-01T01:00:00Z</time>
      </trkpt>
      <trkpt lat="59.281447" lon="18.04206">
        <ele>31.7273</ele>
        <time>1970-01-01T01:00:00Z</time>
      </trkpt>
      <trkpt lat="59.281426" lon="18.041874">
        <ele>31.5455</ele>
        <time>1970-01-01T01:00:00Z</time>
      </trkpt>
      <trkpt lat="59.281402" lon="18.041679">
        <ele>31.1818</ele>
        <time>1970-01-01T01:00:00Z</time>
      </trkpt>
      <trkpt lat="59.281383" lon="18.0415">
        <ele>30.8182</ele>
        <time>1970-01-01T01:00:00Z</time>
      </trkpt>
      <trkpt lat="59.281364" lon="18.041323">
        <ele>30.4545</ele>
        <time>1970-01-01T01:00:00Z</time>
      </trkpt>
      <trkpt lat="59.281334" lon="18.041148">
        <ele>30</ele>
        <time>1970-01-01T01:00:00Z</time>
      </trkpt>
      <trkpt lat="59.281297" lon="18.040952">
        <ele>29.6364</ele>
        <time>1970-01-01T01:00:00Z</time>
      </trkpt>
      <trkpt lat="59.281247" lon="18.040773">
        <ele>29.3636</ele>
        <time>1970-01-01T01:00:00Z</time>
      </trkpt>
      <trkpt lat="59.281203" lon="18.040601">
        <ele>29.1818</ele>
        <time>1970-01-01T01:00:00Z</time>
      </trkpt>
      <trkpt lat="59.281157" lon="18.040422">
        <ele>29.1818</ele>
        <time>1970-01-01T01:00:00Z</time>
      </trkpt>
      <trkpt lat="59.281112" lon="18.040245">
        <ele>29.1818</ele>
        <time>1970-01-01T01:00:00Z</time>
      </trkpt>
      <trkpt lat="59.281077" lon="18.040082">
        <ele>29.2727</ele>
        <time>1970-01-01T01:00:00Z</time>
      </trkpt>
      <trkpt lat="59.28104" lon="18.039918">
        <ele>29.3636</ele>
        <time>1970-01-01T01:00:00Z</time>
      </trkpt>
      <trkpt lat="59.280998" lon="18.03976">
        <ele>29.5455</ele>
        <time>1970-01-01T01:00:00Z</time>
      </trkpt>
      <trkpt lat="59.280949" lon="18.039563">
        <ele>29.7273</ele>
        <time>1970-01-01T01:00:00Z</time>
      </trkpt>
      <trkpt lat="59.280882" lon="18.039394">
        <ele>29.8182</ele>
        <time>1970-01-01T01:00:00Z</time>
      </trkpt>
      <trkpt lat="59.280826" lon="18.039225">
        <ele>29.9091</ele>
        <time>1970-01-01T01:00:00Z</time>
      </trkpt>
      <trkpt lat="59.280777" lon="18.039051">
        <ele>29.9091</ele>
        <time>1970-01-01T01:00:00Z</time>
      </trkpt>
      <trkpt lat="59.280725" lon="18.038874">
        <ele>29.8182</ele>
        <time>1970-01-01T01:00:00Z</time>
      </trkpt>
      <trkpt lat="59.28067" lon="18.038714">
        <ele>29.7273</ele>
        <time>1970-01-01T01:00:00Z</time>
      </trkpt>
      <trkpt lat="59.280611" lon="18.03855">
        <ele>29.5455</ele>
        <time>1970-01-01T01:00:00Z</time>
      </trkpt>
      <trkpt lat="59.280555" lon="18.038401">
        <ele>29.3636</ele>
        <time>1970-01-01T01:00:00Z</time>
      </trkpt>
      <trkpt lat="59.280492" lon="18.038224">
        <ele>29.0909</ele>
        <time>1970-01-01T01:00:00Z</time>
      </trkpt>
      <trkpt lat="59.280483" lon="18.038047">
        <ele>28.8182</ele>
        <time>1970-01-01T01:00:00Z</time>
      </trkpt>
      <trkpt lat="59.280585" lon="18.037961">
        <ele>28.6364</ele>
        <time>1970-01-01T01:00:00Z</time>
      </trkpt>
      <trkpt lat="59.280664" lon="18.037866">
        <ele>28.4545</ele>
        <time>1970-01-01T01:00:00Z</time>
      </trkpt>
      <trkpt lat="59.280748" lon="18.037769">
        <ele>28.3636</ele>
        <time>1970-01-01T01:00:00Z</time>
      </trkpt>
      <trkpt lat="59.280831" lon="18.037674">
        <ele>28.3636</ele>
        <time>1970-01-01T01:00:00Z</time>
      </trkpt>
      <trkpt lat="59.280913" lon="18.037585">
        <ele>28.5455</ele>
        <time>1970-01-01T01:00:00Z</time>
      </trkpt>
      <trkpt lat="59.281013" lon="18.037498">
        <ele>28.7273</ele>
        <time>1970-01-01T01:00:00Z</time>
      </trkpt>
      <trkpt lat="59.281099" lon="18.037398">
        <ele>28.8182</ele>
        <time>1970-01-01T01:00:00Z</time>
      </trkpt>
      <trkpt lat="59.281188" lon="18.037347">
        <ele>28.9091</ele>
        <time>1970-01-01T01:00:00Z</time>
      </trkpt>
      <trkpt lat="59.281193" lon="18.037153">
        <ele>29</ele>
        <time>1970-01-01T01:00:00Z</time>
      </trkpt>
      <trkpt lat="59.281121" lon="18.036997">
        <ele>29.0909</ele>
        <time>1970-01-01T01:00:00Z</time>
      </trkpt>
      <trkpt lat="59.281038" lon="18.036853">
        <ele>29.1818</ele>
        <time>1970-01-01T01:00:00Z</time>
      </trkpt>
      <trkpt lat="59.280959" lon="18.036757">
        <ele>29.1818</ele>
        <time>1970-01-01T01:00:00Z</time>
      </trkpt>
      <trkpt lat="59.280873" lon="18.036663">
        <ele>29.1818</ele>
        <time>1970-01-01T01:00:00Z</time>
      </trkpt>
      <trkpt lat="59.280791" lon="18.036566">
        <ele>29.1818</ele>
        <time>1970-01-01T01:00:00Z</time>
      </trkpt>
      <trkpt lat="59.280712" lon="18.036428">
        <ele>29.1818</ele>
        <time>1970-01-01T01:00:00Z</time>
      </trkpt>
      <trkpt lat="59.280657" lon="18.036259">
        <ele>29.0909</ele>
        <time>1970-01-01T01:00:00Z</time>
      </trkpt>
      <trkpt lat="59.280596" lon="18.036097">
        <ele>29</ele>
        <time>1970-01-01T01:00:00Z</time>
      </trkpt>
      <trkpt lat="59.280531" lon="18.035927">
        <ele>29</ele>
        <time>1970-01-01T01:00:00Z</time>
      </trkpt>
      <trkpt lat="59.280464" lon="18.035749">
        <ele>29</ele>
        <time>1970-01-01T01:00:00Z</time>
      </trkpt>
      <trkpt lat="59.280391" lon="18.035596">
        <ele>29</ele>
        <time>1970-01-01T01:00:00Z</time>
      </trkpt>
      <trkpt lat="59.28032" lon="18.035456">
        <ele>29</ele>
        <time>1970-01-01T01:00:00Z</time>
      </trkpt>
      <trkpt lat="59.280256" lon="18.03531">
        <ele>29</ele>
        <time>1970-01-01T01:00:00Z</time>
      </trkpt>
      <trkpt lat="59.280226" lon="18.035188">
        <ele>29</ele>
        <time>1970-01-01T01:00:00Z</time>
      </trkpt>
    </trkseg>
  </trk>
</gpx>